�N����,����,����,����,����,�C��,���x,�~����,�S�V����,�ő�u�ԕ���,,,
,,,,,,,,,����,����,����,�N��
yyyy/mm/dd,hh:mm:ss,(16),16����,m/s,��,%,mm,KW/�u,(16),16����,m/s,Time
2013/3/1,1:00:00,225,�쐼,2.1,-11.1,93.8,0,0,270,��,3.4,33
2013/3/1,2:00:00,270,��,1.9,-9.8,94.4,0,0,45,�k��,3,18
2013/3/1,3:00:00,270,��,2.1,-12.5,93.4,0,0.01,270,��,2.7,32
2013/3/1,4:00:00,315,�k��,1.6,-7.7,92,0,0.01,248,���쐼,3.6,19
2013/3/1,5:00:00,338,�k�k��,1.1,-9.5,84.6,0,0.01,203,��쐼,4.9,11
2013/3/1,6:00:00,315,�k��,1.9,-8.4,89.7,0,0.01,315,�k��,3.5,38
2013/3/1,7:00:00,338,�k�k��,0.4,-7.9,89.2,0,0.03,293,���k��,3,3
2013/3/1,8:00:00,23,�k�k��,2.2,-6,85.8,0,0.08,270,��,3,21
2013/3/1,9:00:00,270,��,1.5,-4.7,81.9,0,0.14,248,���쐼,2.9,21
2013/3/1,10:00:00,248,���쐼,0.5,-3.7,80.1,0,0.17,248,���쐼,2.5,40
2013/3/1,11:00:00,360,�k,0.6,-1.5,68.1,0,0.18,203,��쐼,1.9,9
2013/3/1,12:00:00,23,�k�k��,1.1,-2.7,91.9,0,0.19,45,�k��,2.1,21
2013/3/1,13:00:00,113,���쓌,2.8,-2.4,96.6,0.5,0.15,90,��,4.7,46
2013/3/1,14:00:00,68,���k��,2.5,-2.7,97.2,0.5,0.14,68,���k��,5.8,24
2013/3/1,15:00:00,90,��,2.5,-2.7,97.2,0,0.12,90,��,5.2,34
2013/3/1,16:00:00,68,���k��,1.9,-2.8,98.2,0,0.06,68,���k��,3.2,38
2013/3/1,17:00:00,360,�k,2,-2.8,98.9,0,0.02,23,�k�k��,2.8,51
2013/3/1,18:00:00,315,�k��,1.8,-2.9,99,0.5,0.01,293,���k��,3.3,57
2013/3/1,19:00:00,315,�k��,3,-2.9,99,0,0,180,��,5.1,59
2013/3/1,20:00:00,23,�k�k��,3.7,-3.2,98.6,0,0,270,��,6.4,18
2013/3/1,21:00:00,45,�k��,4.2,-3.2,98.3,0,0,360,�k,7.3,36
2013/3/1,22:00:00,23,�k�k��,4.9,-3.2,98.3,0,0,225,�쐼,8.1,54
2013/3/1,23:00:00,248,���쐼,5.5,-3.4,97.1,0,0,90,��,8.5,51
2013/3/1,0:00:00,248,���쐼,4.7,-3.2,95.7,0,0.01,270,��,8.2,4
2013/3/2,1:00:00,293,���k��,4.1,-3.1,95.3,0,0,23,�k�k��,7.9,15
2013/3/2,2:00:00,270,��,2.6,-3,96.9,0.5,0,203,��쐼,7,1
2013/3/2,3:00:00,270,��,1.5,-8.6,94.6,0,0,360,�k,3.7,25
2013/3/2,4:00:00,248,���쐼,2.7,-3.9,98.5,0,0.01,90,��,4.7,44
2013/3/2,5:00:00,23,�k�k��,2.7,-4.6,96.2,0,0.01,248,���쐼,6.4,15
2013/3/2,6:00:00,225,�쐼,2.9,-1.8,100,0,0.01,248,���쐼,6.6,59
2013/3/2,7:00:00,203,��쐼,3.3,-0.7,83.7,0.5,0.08,248,���쐼,7.4,4
2013/3/2,8:00:00,225,�쐼,5.7,-0.8,88.7,0,0.18,225,�쐼,9.9,42
2013/3/2,9:00:00,225,�쐼,4.9,-0.3,93.5,0,0.4,225,�쐼,11,42
2013/3/2,10:00:00,225,�쐼,6,0.3,88.9,0,0.57,180,��,9.8,18
2013/3/2,11:00:00,270,��,4.7,1.7,82.1,1,0.73,248,���쐼,9.3,1
2013/3/2,12:00:00,293,���k��,3.7,2.3,67,8,0.71,270,��,8.5,29
2013/3/2,13:00:00,293,���k��,3.3,2.5,67.4,2.5,0.74,315,�k��,7.1,26
2013/3/2,14:00:00,270,��,2.8,2.6,67.7,1,0.65,315,�k��,4.7,0
2013/3/2,15:00:00,338,�k�k��,5.3,0.1,76.8,0,0.36,315,�k��,13.4,28
2013/3/2,16:00:00,315,�k��,7.3,-2,64.5,0,0.32,315,�k��,15,25
2013/3/2,17:00:00,315,�k��,9.9,-3.1,63.2,0,0.13,338,�k�k��,16.4,48
2013/3/2,18:00:00,225,�쐼,12.4,-3,57.3,0,0.01,270,��,22.7,53
2013/3/2,19:00:00,203,��쐼,7.4,-3.1,57.3,0,0,90,��,20.7,7
2013/3/2,20:00:00,270,��,6.4,-2.8,56.8,0,0.01,113,���쓌,15.3,1
2013/3/2,21:00:00,360,�k,7.3,-2.7,56.5,0,0,248,���쐼,19.1,39
2013/3/2,22:00:00,270,��,8.2,-2.6,57.9,0,0,90,��,16,1
2013/3/2,23:00:00,315,�k��,8,-2.6,56.8,0,0.01,293,���k��,18.5,34
2013/3/2,0:00:00,315,�k��,6.2,-2.5,57.9,0,0.01,135,�쓌,16.4,13
2013/3/3,1:00:00,360,�k,6.2,-2.7,60.1,0,0.01,315,�k��,14.3,26
2013/3/3,2:00:00,315,�k��,6.6,-2.7,60.4,0,0.01,180,��,14.6,12
2013/3/3,3:00:00,315,�k��,5.8,-2.4,56.4,0,0,315,�k��,14.6,35
2013/3/3,4:00:00,248,���쐼,6.4,-2.6,58.9,0,0,360,�k,14.9,43
2013/3/3,5:00:00,338,�k�k��,4.2,-3.4,60.5,0,0,90,��,14.3,14
2013/3/3,6:00:00,293,���k��,6.1,-3.5,61.2,0,0.01,315,�k��,12.9,34
2013/3/3,7:00:00,315,�k��,5.8,-3.4,60.1,0,0.07,225,�쐼,13.2,34
2013/3/3,8:00:00,315,�k��,6.8,-2.8,57.5,0,0.27,158,��쓌,12.7,39
2013/3/3,9:00:00,338,�k�k��,7.4,-2.3,56.1,0,0.48,23,�k�k��,14,55
2013/3/3,10:00:00,315,�k��,5.5,-1.5,52.1,0,0.65,315,�k��,11.8,45
2013/3/3,11:00:00,315,�k��,6.6,-1,46.4,0,0.75,225,�쐼,11.6,52
2013/3/3,12:00:00,315,�k��,6,-0.5,47.7,0,0.8,270,��,11.8,13
2013/3/3,13:00:00,293,���k��,5.6,-0.3,46.6,0,0.77,203,��쐼,10.7,38
2013/3/3,14:00:00,248,���쐼,4.4,0.2,46.8,0,0.69,338,�k�k��,8.6,15
2013/3/3,15:00:00,270,��,4.8,-0.2,49.3,0,0.55,315,�k��,8.4,4
2013/3/3,16:00:00,270,��,3.8,-0.8,53.2,0,0.35,158,��쓌,7.4,12
2013/3/3,17:00:00,180,��,2.8,-1.9,58,0,0.13,90,��,6.9,21
2013/3/3,18:00:00,315,�k��,2,-4,65.6,0,0.01,293,���k��,5.2,46
2013/3/3,19:00:00,23,�k�k��,2.5,-5.4,70.3,0,0,180,��,5.7,22
2013/3/3,20:00:00,225,�쐼,1.6,-8.1,72.8,0,0,23,�k�k��,3.8,31
2013/3/3,21:00:00,315,�k��,1.3,-8.8,72.9,0,0.01,225,�쐼,3.9,31
2013/3/3,22:00:00,360,�k,2.5,-6.6,68.6,0,0.01,158,��쓌,4.7,38
2013/3/3,23:00:00,45,�k��,2.8,-8.1,67.5,0,0.01,248,���쐼,5.5,38
2013/3/3,0:00:00,338,�k�k��,3.2,-11.7,75.4,0,0.01,180,��,4.8,36
2013/3/4,1:00:00,45,�k��,3.3,-8.3,74.1,0,0.01,113,���쓌,5.4,36
2013/3/4,2:00:00,360,�k,2.7,-10.4,79.6,0,0.01,360,�k,5.1,15
2013/3/4,3:00:00,23,�k�k��,3.3,-13.2,84.8,0,0.01,23,�k�k��,5.4,36
2013/3/4,4:00:00,45,�k��,3.3,-12.2,84.5,0,0.01,360,�k,4.8,39
2013/3/4,5:00:00,360,�k,0.7,-15.5,93.3,0,0.01,23,�k�k��,4.3,0
2013/3/4,6:00:00,360,�k,0.8,-16.9,90.8,0,0.01,270,��,1.9,48
2013/3/4,7:00:00,270,��,1,-16.4,87,0,0.09,338,�k�k��,1.8,36
2013/3/4,8:00:00,270,��,1.3,-13,80.4,0,0.29,270,��,2.5,7
2013/3/4,9:00:00,90,��,0.6,-4.4,68.5,0,0.5,135,�쓌,2.6,19
2013/3/4,10:00:00,135,�쓌,1.6,-4.2,67.2,0,0.66,113,���쓌,3,50
2013/3/4,11:00:00,113,���쓌,2,-3.3,63.1,0,0.76,135,�쓌,3.3,58
2013/3/4,12:00:00,113,���쓌,3.1,-3.5,64.5,0,0.79,113,���쓌,4.5,54
2013/3/4,13:00:00,135,�쓌,2.9,-3,61.6,0,0.77,113,���쓌,5.1,34
2013/3/4,14:00:00,158,��쓌,2.9,-2.8,64.1,0,0.69,158,��쓌,5.1,27
2013/3/4,15:00:00,180,��,2.6,-2.9,68.3,0,0.55,158,��쓌,4.5,12
2013/3/4,16:00:00,135,�쓌,2.5,-2.9,75.5,0,0.35,158,��쓌,4,52
2013/3/4,17:00:00,90,��,1.5,-4.7,80.2,0,0.13,113,���쓌,4.3,4
2013/3/4,18:00:00,270,��,1,-10.7,90.7,0,0.01,23,�k�k��,2.9,29
2013/3/4,19:00:00,270,��,2,-9.8,92.3,0,0,270,��,2.7,43
2013/3/4,20:00:00,270,��,2.4,-12.2,93.2,0,0,270,��,3.6,21
2013/3/4,21:00:00,270,��,1.6,-13.5,91.5,0,0,248,���쐼,3.5,31
2013/3/4,22:00:00,270,��,2.6,-11.8,94.2,0,0,270,��,3.7,44
2013/3/4,23:00:00,225,�쐼,2.2,-13.5,92.2,0,0.01,270,��,3.8,42
2013/3/4,0:00:00,248,���쐼,1.7,-12.9,93,0,0.01,270,��,2.7,2
2013/3/5,1:00:00,203,��쐼,2.6,-10.2,94.7,0,0.01,203,��쐼,3.5,54
2013/3/5,2:00:00,270,��,1.5,-11.8,94.4,0,0.01,360,�k,4.8,13
2013/3/5,3:00:00,225,�쐼,2.7,-12.5,92.2,0,0.01,225,�쐼,3.8,58
2013/3/5,4:00:00,293,���k��,2.5,-12.1,93.3,0,0.01,270,��,4.5,1
2013/3/5,5:00:00,293,���k��,1.5,-12.2,93.3,0,0.01,45,�k��,3.2,4
2013/3/5,6:00:00,225,�쐼,2.3,-11.6,93.7,0,0.01,270,��,3.4,8
2013/3/5,7:00:00,270,��,0.9,-12.6,92.5,0,0.04,225,�쐼,3.1,28
2013/3/5,8:00:00,293,���k��,1.4,-9.8,92.3,0,0.13,270,��,3.1,22
2013/3/5,9:00:00,270,��,0.8,-7.7,87.5,0,0.28,23,�k�k��,4,37
2013/3/5,10:00:00,158,��쓌,0.3,-3.4,79.4,0,0.34,270,��,2.1,33
2013/3/5,11:00:00,90,��,1.4,-2.3,83.4,0,0.4,90,��,2.5,47
2013/3/5,12:00:00,90,��,2,-1.9,87.6,0,0.54,113,���쓌,2.6,59
2013/3/5,13:00:00,135,�쓌,2.2,-2.1,88.4,0,0.64,135,�쓌,3,57
2013/3/5,14:00:00,113,���쓌,2,-1.3,87.6,0,0.62,113,���쓌,3.3,27
2013/3/5,15:00:00,90,��,0.6,-0.2,84.2,0,0.49,113,���쓌,2.1,27
2013/3/5,16:00:00,135,�쓌,0.3,-2.2,86.7,0,0.25,45,�k��,1.3,8
2013/3/5,17:00:00,203,��쐼,0.9,-4.3,86,0,0.14,180,��,1.7,49
2013/3/5,18:00:00,270,��,1,-5.6,92.4,0,0.01,248,���쐼,3.2,36
2013/3/5,19:00:00,203,��쐼,1.1,-11,91.9,0,0,270,��,3.2,19
2013/3/5,20:00:00,270,��,2.8,-11.9,92.7,0,0,270,��,3.5,56
2013/3/5,21:00:00,270,��,1.9,-13.7,90.4,0,0.01,270,��,3,29
2013/3/5,22:00:00,270,��,1.8,-13.5,91.8,0,0.01,270,��,3.1,0
2013/3/5,23:00:00,293,���k��,0.8,-11.8,93.7,0,0.01,270,��,3.9,2
2013/3/5,0:00:00,248,���쐼,2.3,-9.1,96.5,0,0.01,203,��쐼,4.8,5
2013/3/6,1:00:00,270,��,1.7,-9.9,95.5,0,0.01,248,���쐼,2.9,1
2013/3/6,2:00:00,270,��,0.9,-11,92.9,0,0.01,270,��,3.6,26
2013/3/6,3:00:00,203,�É�,0.1,-12,91.1,0,0.01,270,��,3.4,21
2013/3/6,4:00:00,293,���k��,0.6,-12.7,92.6,0,0.01,360,�k,3.1,27
2013/3/6,5:00:00,203,��쐼,3.9,-1.1,86.1,0,0.01,203,��쐼,8.1,54
2013/3/6,6:00:00,203,��쐼,5.6,-0.3,81.6,0,0.01,180,��,10.2,19
2013/3/6,7:00:00,203,��쐼,5.9,0.2,86.5,0,0.05,180,��,11.2,43
2013/3/6,8:00:00,180,��,5.7,1.2,86.1,0,0.21,203,��쐼,11.6,28
2013/3/6,9:00:00,180,��,3.9,2.2,79.7,0,0.35,180,��,8.9,13
2013/3/6,10:00:00,158,��쓌,3.3,3.1,79.1,0,0.37,180,��,6.7,23
2013/3/6,11:00:00,180,��,2.7,3.2,84,0,0.4,180,��,7.5,17
2013/3/6,12:00:00,135,�쓌,3.5,3.3,81.5,0,0.67,225,�쐼,6.7,37
2013/3/6,13:00:00,225,�쐼,3.2,4.4,73.7,0,0.66,158,��쓌,5.6,24
2013/3/6,14:00:00,315,�k��,3.7,5,71.4,0,0.61,315,�k��,6,55
2013/3/6,15:00:00,315,�k��,5.9,2.9,75.1,0,0.38,360,�k,9.5,56
2013/3/6,16:00:00,315,�k��,6.3,3,63.6,0,0.31,293,���k��,10.4,49
2013/3/6,17:00:00,315,�k��,6.5,2.1,57.8,0,0.14,315,�k��,13.4,48
2013/3/6,18:00:00,315,�k��,5.1,1.1,55.7,0,0.01,158,��쓌,12.7,10
2013/3/6,19:00:00,315,�k��,2.8,-0.1,58.9,0,0,203,��쐼,8.9,22
2013/3/6,20:00:00,338,�k�k��,3,-1.5,62,0,0,315,�k��,7,3
2013/3/6,21:00:00,270,��,2.9,-2.3,61.5,0,0,315,�k��,5.9,10
2013/3/6,22:00:00,270,��,3.8,-8.7,74.5,0,0,158,��쓌,6.1,32
2013/3/6,23:00:00,180,��,1.6,-5.9,77.4,0,0.01,360,�k,4.6,14
2013/3/6,0:00:00,45,�k��,2,-12.8,89.1,0,0,270,��,2.9,58
2013/3/7,1:00:00,270,��,2.7,-7,80.4,0,0.01,270,��,4.2,56
2013/3/7,2:00:00,270,��,2.7,-10.4,86.9,0,0.01,270,��,4.1,0
2013/3/7,3:00:00,315,�k��,1.2,-14.8,88.9,0,0.01,248,���쐼,2.9,33
2013/3/7,4:00:00,248,���쐼,2.7,-14.2,87,0,0.01,45,�k��,3.6,54
2013/3/7,5:00:00,23,�k�k��,2.3,-11.8,88.5,0,0.01,23,�k�k��,3.8,23
2013/3/7,6:00:00,270,��,2,-11.8,89.7,0,0.01,270,��,4.1,59
2013/3/7,7:00:00,23,�k�k��,2.3,-11.3,85.7,0,0.07,248,���쐼,4.2,20
2013/3/7,8:00:00,338,�k�k��,1.2,-8.6,79.6,0,0.25,158,��쓌,2.7,46
2013/3/7,9:00:00,293,�É�,0.2,-3.5,67.6,0,0.43,248,���쐼,2.3,18
2013/3/7,10:00:00,113,���쓌,2.3,-2,72.5,0,0.37,135,�쓌,2.9,58
2013/3/7,11:00:00,68,���k��,1.1,-1.1,80.9,0,0.33,90,��,3,42
2013/3/7,12:00:00,158,��쓌,5.7,2.8,61.1,0,0.66,158,��쓌,9.8,55
2013/3/7,13:00:00,158,��쓌,4.7,3.3,61.7,0,0.6,180,��,10.6,17
2013/3/7,14:00:00,180,��,6.5,2.7,70.6,0,0.53,180,��,13.6,15
2013/3/7,15:00:00,180,��,6.1,3.2,69.9,0,0.38,180,��,10.9,10
2013/3/7,16:00:00,158,��쓌,4.3,2.8,75.7,0,0.23,180,��,10.5,17
2013/3/7,17:00:00,135,�쓌,2.4,2.3,79.4,0,0.07,135,�쓌,7.5,17
2013/3/7,18:00:00,180,��,3.3,4.7,68,0,0.01,180,��,6.6,47
2013/3/7,19:00:00,203,��쐼,2.1,4.6,74.4,0,0,360,�k,8.6,35
2013/3/7,20:00:00,203,��쐼,4.9,4.3,82.5,0,0,203,��쐼,9.7,30
2013/3/7,21:00:00,180,��,4.3,4.5,84.8,0,0,180,��,8,43
2013/3/7,22:00:00,158,��쓌,5.1,5.2,81.5,0,0,135,�쓌,8.6,53
2013/3/7,23:00:00,203,��쐼,1.9,2.8,85.6,0,0,180,��,7,0
2013/3/7,0:00:00,248,���쐼,5.8,6,61.9,0,0,225,�쐼,9.1,52
2013/3/8,1:00:00,135,�쓌,2.3,4,74.7,0,0,113,���쓌,6.8,1
2013/3/8,2:00:00,45,�k��,2.6,1.3,79.3,0,0,158,��쓌,7.2,20
2013/3/8,3:00:00,90,��,2.5,-1.3,90.3,0,0,68,���k��,5.2,12
2013/3/8,4:00:00,225,�쐼,0.4,-3.3,95.7,0,0,68,���k��,4,0
2013/3/8,5:00:00,270,��,1.3,-5.4,94,0,0,270,��,2.7,0
2013/3/8,6:00:00,293,���k��,1.4,-5.6,96.7,0,0.01,360,�k,4.5,49
2013/3/8,7:00:00,315,�k��,1.4,-5.3,96.5,0,0.05,270,��,4.9,32
2013/3/8,8:00:00,293,���k��,1.6,-2.1,88.1,0,0.27,270,��,3.6,3
2013/3/8,9:00:00,90,��,1.1,4.3,64,0,0.45,270,��,7.5,22
2013/3/8,10:00:00,90,��,2.5,5.2,55.7,0,0.64,90,��,3.1,51
2013/3/8,11:00:00,68,���k��,2.4,3.6,53,0,0.62,68,���k��,3.9,59
2013/3/8,12:00:00,23,�k�k��,2.3,4,64.5,0,0.73,68,���k��,4.4,7
2013/3/8,13:00:00,90,��,1.2,6.2,58.2,0,0.65,45,�k��,3.3,9
2013/3/8,14:00:00,180,��,3.9,7.7,41.2,0,0.67,158,��쓌,7.4,31
2013/3/8,15:00:00,225,�쐼,4.4,8,39.8,0,0.53,203,��쐼,7.9,25
2013/3/8,16:00:00,180,��,3.6,5.3,56.2,0,0.3,225,�쐼,7.7,3
2013/3/8,17:00:00,180,��,3.4,2,79.2,0,0.11,180,��,8.3,32
2013/3/8,18:00:00,158,��쓌,3.8,2.3,82.9,0,0.01,158,��쓌,8,47
2013/3/8,19:00:00,158,��쓌,3,2.5,85.7,0,0,135,�쓌,9,44
2013/3/8,20:00:00,270,��,2.3,0.9,91.9,0,0,270,��,5.3,41
2013/3/8,21:00:00,225,�쐼,3.6,5.9,70.7,0,0,225,�쐼,7.4,59
2013/3/8,22:00:00,180,��,2.5,4.1,82.4,0,0,225,�쐼,8,5
2013/3/8,23:00:00,180,��,3.1,3.3,86.9,0,0,180,��,4.8,55
2013/3/8,0:00:00,203,��쐼,2.1,3.5,90.5,0,0,180,��,5.9,11
2013/3/9,1:00:00,338,�k�k��,5.8,-0.1,88.8,0,0,360,�k,12.1,44
2013/3/9,2:00:00,315,�k��,4.2,-0.4,69.1,0,0,338,�k�k��,13.4,21
2013/3/9,3:00:00,315,�k��,7.8,-1,63.9,0,0,338,�k�k��,17.3,57
2013/3/9,4:00:00,315,�k��,5.8,-2.1,61.8,0,0,315,�k��,13,3
2013/3/9,5:00:00,315,�k��,4.6,-3.3,58.2,0,0,315,�k��,14.1,6
2013/3/9,6:00:00,315,�k��,4.7,-3.7,55.9,0,0.01,315,�k��,11.4,13
2013/3/9,7:00:00,293,���k��,4.5,-3.7,55.7,0,0.06,360,�k,11,21
2013/3/9,8:00:00,293,���k��,5.8,-3.5,54.6,0,0.14,338,�k�k��,10.9,58
2013/3/9,9:00:00,293,���k��,5.6,-3.7,55,0,0.26,315,�k��,14.9,26
2013/3/9,10:00:00,315,�k��,7.3,-3.2,43.1,0,0.64,293,���k��,16.4,43
2013/3/9,11:00:00,315,�k��,7.3,-3.5,47.3,0,0.77,315,�k��,15,30
2013/3/9,12:00:00,293,���k��,5.7,-3.1,51.8,0,0.67,338,�k�k��,13.7,9
2013/3/9,13:00:00,293,���k��,4.1,-3.1,43.4,0,0.5,338,�k�k��,9.2,13
2013/3/9,14:00:00,315,�k��,5.5,-3.1,45.2,0,0.55,270,��,11.4,50
2013/3/9,15:00:00,315,�k��,4.3,-3.5,45.5,0,0.52,315,�k��,11.3,0
2013/3/9,16:00:00,315,�k��,4.2,-4.1,46.5,0,0.34,338,�k�k��,9.7,6
2013/3/9,17:00:00,338,�k�k��,3.5,-4.7,49.9,0,0.13,360,�k,8.4,28
2013/3/9,18:00:00,338,�k�k��,3.3,-5.6,53.4,0,0.01,315,�k��,10.7,45
2013/3/9,19:00:00,293,���k��,4.3,-5.5,53.7,0,0,270,��,8.5,59
2013/3/9,20:00:00,270,��,2.5,-5.9,58.9,0,0,68,���k��,7.3,0
2013/3/9,21:00:00,270,��,3.3,-7.6,69.9,0,0,113,���쓌,4.8,4
2013/3/9,22:00:00,338,�k�k��,2,-6.6,67.6,0,0,23,�k�k��,5.3,13
2013/3/9,23:00:00,248,���쐼,1.4,-7.3,75.6,0,0,360,�k,2.7,0
2013/3/9,0:00:00,360,�k,0.9,-6.7,73,0,0,248,���쐼,2.5,40
2013/3/10,1:00:00,248,���쐼,0.7,-7.8,77.8,0,0,23,�k�k��,2.5,13
2013/3/10,2:00:00,270,��,0.4,-6.6,80.6,0,0,113,���쓌,3.8,16
2013/3/10,3:00:00,315,�k��,1,-6.1,74,0,0,113,���쓌,2.3,47
2013/3/10,4:00:00,270,��,1.4,-6.2,80.4,0,0,270,��,2.2,44
2013/3/10,5:00:00,270,��,1.5,-6.2,81.2,0,0.01,248,���쐼,2.7,26
2013/3/10,6:00:00,225,�쐼,0.6,-6,84.8,0,0.01,248,���쐼,3.1,12
2013/3/10,7:00:00,158,��쓌,4.1,-3.1,73.1,0,0.01,180,��,7.7,38
2013/3/10,8:00:00,158,��쓌,4.4,-2.8,84.9,0,0.02,180,��,8.8,58
2013/3/10,9:00:00,90,��,0.9,-2.2,97.6,0,0.02,135,�쓌,8.8,25
2013/3/10,10:00:00,68,���k��,2.9,-2,99.1,0,0.04,90,��,4.5,35
2013/3/10,11:00:00,270,��,2.5,-3.6,97.6,0,0.1,248,���쐼,5,57
2013/3/10,12:00:00,270,��,3.8,-4.2,90.4,0,0.37,293,���k��,7.2,59
2013/3/10,13:00:00,293,���k��,6.2,-1.5,77,0,0.71,315,�k��,13.9,39
2013/3/10,14:00:00,315,�k��,5.4,1.3,63.4,0,0.69,225,�쐼,10.7,2
2013/3/10,15:00:00,248,���쐼,7.5,2.1,54.2,0,0.54,225,�쐼,13.3,59
2013/3/10,16:00:00,270,��,6.2,0.6,65.3,1,0.28,270,��,11.8,17
2013/3/10,17:00:00,248,���쐼,8.1,-2,78.5,1,0.1,248,���쐼,13.5,39
2013/3/10,18:00:00,248,���쐼,8.4,-2.9,52.7,0,0.01,360,�k,17.5,46
2013/3/10,19:00:00,248,���쐼,9.2,-3.9,48.7,0,0,270,��,16.6,53
2013/3/10,20:00:00,225,�쐼,7.3,-5.4,52.3,0,0,225,�쐼,15.6,5
2013/3/10,21:00:00,315,�k��,1.9,-6,48.6,0,0,203,��쐼,9.7,19
2013/3/10,22:00:00,225,�쐼,5.2,-7.2,54.1,0,0,360,�k,9.4,57
2013/3/10,23:00:00,225,�쐼,5.9,-6.2,53,0,0,225,�쐼,9.9,57
2013/3/10,0:00:00,203,��쐼,7.7,-6.6,54.7,0,0.01,225,�쐼,12.1,5
2013/3/11,1:00:00,90,��,7.4,-6.6,53.2,0,0.01,248,���쐼,12.8,2
2013/3/11,2:00:00,90,��,6.6,-7.5,55.9,0,0,203,��쐼,11.5,11
2013/3/11,3:00:00,23,�k�k��,5,-7.5,53.7,0,0.01,225,�쐼,8.1,5
2013/3/11,4:00:00,23,�k�k��,6.9,-6.7,46.1,0,0.01,135,�쓌,13,50
2013/3/11,5:00:00,293,���k��,3.7,-7.7,49.6,0,0,23,�k�k��,12.3,14
2013/3/11,6:00:00,23,�k�k��,1.3,-11.8,61.1,0,0.01,180,��,6.1,9
2013/3/11,7:00:00,270,��,1.5,-8.3,54.4,0,0.12,360,�k,5,32
2013/3/11,8:00:00,23,�k�k��,3.4,-5.9,49.6,0,0.32,23,�k�k��,5.7,50
2013/3/11,9:00:00,225,�쐼,1.3,-4.3,43.2,0,0.53,315,�k��,5,2
2013/3/11,10:00:00,158,��쓌,2.1,-3.1,44.9,0.5,0.67,180,��,3.5,57
2013/3/11,11:00:00,135,�쓌,1.3,-2.1,48,1,0.79,135,�쓌,4.3,16
2013/3/11,12:00:00,338,�k�k��,3.4,-1,33.7,0.5,0.84,270,��,7.8,47
2013/3/11,13:00:00,315,�k��,3.2,-1.7,39,0,0.52,203,��쐼,7,32
2013/3/11,14:00:00,270,��,2.1,-0.9,43.1,0,0.51,248,���쐼,4.4,0
2013/3/11,15:00:00,315,�k��,2,-0.9,40.4,0,0.57,225,�쐼,7.5,7
2013/3/11,16:00:00,270,��,0.5,-1.1,45.9,0,0.15,248,���쐼,2.3,8
2013/3/11,17:00:00,248,���쐼,1.5,-3.3,56.8,0,0.16,225,�쐼,5.7,59
2013/3/11,18:00:00,248,���쐼,4.5,-3.4,54.6,0,0.01,270,��,7.8,39
2013/3/11,19:00:00,248,���쐼,3.2,-4.6,56.2,0,0,248,���쐼,5.7,2
2013/3/11,20:00:00,248,���쐼,5.3,-4.1,55.4,0,0,248,���쐼,9.3,41
2013/3/11,21:00:00,225,�쐼,4.1,-3.9,57.7,0,0,248,���쐼,9.1,3
2013/3/11,22:00:00,293,���k��,1.6,-6.5,64.2,0,0,248,���쐼,5.6,0
2013/3/11,23:00:00,338,�k�k��,0.3,-10,73.9,0,0.01,338,�k�k��,2.7,55
2013/3/11,0:00:00,45,�k��,0.5,-9.7,77.3,0,0.01,45,�k��,7.3,9
2013/3/12,1:00:00,225,�쐼,0.7,-12.9,85.4,0,0.01,45,�k��,3.8,29
2013/3/12,2:00:00,360,�É�,0.1,-14.5,86,0,0.01,293,���k��,2.3,59
2013/3/12,3:00:00,270,��,1,-15.5,86.3,0,0.01,270,��,2.7,36
2013/3/12,4:00:00,248,���쐼,2.2,-14.7,86.8,0,0.01,270,��,3.1,58
2013/3/12,5:00:00,338,�k�k��,1.5,-13,82.6,0,0.01,135,�쓌,4.1,2
2013/3/12,6:00:00,315,�k��,1.9,-13.5,88.3,0,0.01,248,���쐼,3.4,43
2013/3/12,7:00:00,225,�쐼,2.7,-12.3,82.1,0,0.11,248,���쐼,4.3,33
2013/3/12,8:00:00,23,�k�k��,1.5,-8,73.2,0,0.32,270,��,5,22
2013/3/12,9:00:00,23,�k�k��,1,-2.1,65.8,0,0.53,293,���k��,3.7,3
2013/3/12,10:00:00,203,��쐼,3.4,4,46.3,0.5,0.68,203,��쐼,7.6,51
2013/3/12,11:00:00,225,�쐼,7.2,4.3,51.7,0.5,0.78,248,���쐼,12.2,17
2013/3/12,12:00:00,225,�쐼,6.9,4.3,55.4,0.5,0.8,225,�쐼,12.6,4
2013/3/12,13:00:00,225,�쐼,6.2,4.8,55.6,0.5,0.78,248,���쐼,12.3,37
2013/3/12,14:00:00,225,�쐼,6,5.4,56.3,0,0.66,248,���쐼,10.9,0
2013/3/12,15:00:00,225,�쐼,6.3,5.3,57.3,0,0.56,248,���쐼,12.1,49
2013/3/12,16:00:00,225,�쐼,6.6,4.9,62.1,0,0.41,225,�쐼,10.8,19
2013/3/12,17:00:00,225,�쐼,5.2,4.7,65,0,0.18,248,���쐼,12.2,39
2013/3/12,18:00:00,225,�쐼,5.4,4.5,66.1,0,0.01,225,�쐼,10.3,42
2013/3/12,19:00:00,225,�쐼,4.8,4.9,65.4,0,0,180,��,7.6,53
2013/3/12,20:00:00,180,��,3.9,2.7,78.2,0,0,225,�쐼,8.4,2
2013/3/12,21:00:00,180,��,5.3,1.1,83,0,0,180,��,10.4,58
2013/3/12,22:00:00,203,��쐼,4.9,1.4,85.5,0,0,180,��,9.7,18
2013/3/12,23:00:00,203,��쐼,3.6,2,82,0,0,203,��쐼,7.7,33
2013/3/12,0:00:00,203,��쐼,3.7,1.9,82.1,0,0,203,��쐼,7.9,45
2013/3/13,1:00:00,203,��쐼,4.4,2.5,77.4,0,0,180,��,9.5,56
2013/3/13,2:00:00,203,��쐼,3.6,3,72.6,0,0,180,��,7.7,46
2013/3/13,3:00:00,180,��,5,2.4,82.7,0,0,180,��,9.8,38
2013/3/13,4:00:00,180,��,4.8,2.2,83.5,0,0,180,��,10.2,11
2013/3/13,5:00:00,180,��,5.1,3.3,86.1,0,0,180,��,10.1,46
2013/3/13,6:00:00,180,��,3.5,3.6,85.6,0,0.01,158,��쓌,9.2,19
2013/3/13,7:00:00,180,��,3.5,4.6,76.6,0,0.03,158,��쓌,7.2,35
2013/3/13,8:00:00,180,��,4.5,4.4,79,0,0.1,180,��,7.2,56
2013/3/13,9:00:00,158,��쓌,4.7,4.3,75.6,0,0.2,180,��,8,46
2013/3/13,10:00:00,158,��쓌,3.3,4.1,79.5,0,0.32,158,��쓌,7.9,30
2013/3/13,11:00:00,203,��쐼,3,5.7,78.9,0,0.34,180,��,6.6,51
2013/3/13,12:00:00,180,��,3.3,5,74.2,0,0.38,180,��,7.3,39
2013/3/13,13:00:00,180,��,2.8,4.4,78.3,0,0.29,180,��,5.8,18
2013/3/13,14:00:00,203,��쐼,1.8,5,82,0,0.26,180,��,4.7,8
2013/3/13,15:00:00,225,�쐼,1.8,5.7,78.6,0,0.23,225,�쐼,3.2,19
2013/3/13,16:00:00,225,�쐼,2.3,4.8,77.4,0,0.16,225,�쐼,3.3,52
2013/3/13,17:00:00,225,�쐼,2.4,4.6,81.5,0,0.07,248,���쐼,3.4,38
2013/3/13,18:00:00,270,��,2.5,2.4,88.8,0,0.01,270,��,3.7,41
2013/3/13,19:00:00,315,�k��,2.3,2.9,90.3,0,0,338,�k�k��,3.7,58
2013/3/13,20:00:00,293,���k��,2.2,2.4,92.6,0,0,315,�k��,3.3,42
2013/3/13,21:00:00,293,���k��,2.6,2.5,93.8,0,0,315,�k��,4.2,33
2013/3/13,22:00:00,270,��,2.2,1.9,94.7,0,0,270,��,3.6,59
2013/3/13,23:00:00,315,�k��,5,2.4,76,0,0,293,���k��,9.1,52
2013/3/13,0:00:00,315,�k��,5.8,1,71.2,0,0,293,���k��,10.5,27
2013/3/14,1:00:00,315,�k��,3.8,0.6,70.1,0,0,338,�k�k��,11.9,22
2013/3/14,2:00:00,315,�k��,4.4,-0.7,67.5,0,0,338,�k�k��,9,38
2013/3/14,3:00:00,338,�k�k��,3.3,-1.2,64.9,0,0,293,���k��,9.7,15
2013/3/14,4:00:00,338,�k�k��,2.8,-1.7,61.5,0,0,360,�k,6.2,8
2013/3/14,5:00:00,338,�k�k��,1.6,-2.9,66.8,0,0,158,��쓌,5.1,6
2013/3/14,6:00:00,135,�쓌,1.1,-4.7,78.4,0,0.01,225,�쐼,4.7,33
2013/3/14,7:00:00,90,��,1.4,-4,76.3,0,0.03,23,�k�k��,2.9,59
2013/3/14,8:00:00,315,�k��,1.6,-1.5,54.3,0,0.15,248,���쐼,3.5,27
2013/3/14,9:00:00,338,�k�k��,4.1,-0.7,43.1,0,0.56,360,�k,8.7,22
2013/3/14,10:00:00,338,�k�k��,4.6,-0.8,38.5,0,0.72,360,�k,10.1,27
2013/3/14,11:00:00,338,�k�k��,3.6,-0.5,45.2,0,0.76,360,�k,8.8,13
2013/3/14,12:00:00,360,�k,2.8,-0.7,44.6,0,0.47,338,�k�k��,6.1,55
2013/3/14,13:00:00,360,�k,3,0.4,42.1,0,0.48,360,�k,7.3,45
2013/3/14,14:00:00,360,�k,3.5,0.2,43,0,0.75,338,�k�k��,6.7,44
2013/3/14,15:00:00,338,�k�k��,3,-0.2,42,0,0.6,270,��,7,2
2013/3/14,16:00:00,315,�k��,2.7,-0.7,46.1,0,0.4,293,���k��,5.5,42
2013/3/14,17:00:00,315,�k��,1.7,-1.6,47,0,0.18,315,�k��,5.6,7
2013/3/14,18:00:00,338,�k�k��,1,-3.2,51.7,0,0.02,315,�k��,3.9,14
2013/3/14,19:00:00,248,���쐼,0.3,-5.6,64.9,0,0,248,���쐼,2.1,24
2013/3/14,20:00:00,225,�É�,0.2,-6.8,70.1,0,0,225,�쐼,2.5,39
2013/3/14,21:00:00,270,��,0.7,-9.5,82.1,0,0,270,��,4.3,22
2013/3/14,22:00:00,270,��,0.7,-11.1,83.1,0,0,270,��,2,58
2013/3/14,23:00:00,270,��,1.7,-10.1,84.3,0,0,293,���k��,2.5,17
2013/3/14,0:00:00,270,��,1.2,-12.5,82.8,0,0,270,��,2.5,28
2013/3/15,1:00:00,248,���쐼,1.8,-12.7,86,0,0.01,270,��,2.5,55
2013/3/15,2:00:00,270,��,0.7,-12.6,84.9,0,0.01,360,�k,2.7,42
2013/3/15,3:00:00,270,��,1.7,-12.3,87.6,0,0.01,225,�쐼,3.1,34
2013/3/15,4:00:00,270,��,1.2,-13,86.7,0,0.01,270,��,3,5
2013/3/15,5:00:00,360,�k,2.2,-12.9,87.6,0,0.01,225,�쐼,3.1,14
2013/3/15,6:00:00,248,���쐼,2.5,-12.4,85.7,0,0.01,225,�쐼,3,57
2013/3/15,7:00:00,270,��,2,-10.5,80,0,0.14,270,��,3.2,27
2013/3/15,8:00:00,180,��,0.7,-5.7,74.7,0,0.35,293,���k��,2.5,3
2013/3/15,9:00:00,180,��,1.3,0.5,64.1,0,0.56,180,��,3,28
2013/3/15,10:00:00,225,�쐼,5.2,1.8,50.6,0,0.71,225,�쐼,8.8,59
2013/3/15,11:00:00,225,�쐼,4.8,2.4,49.2,0,0.8,248,���쐼,9.6,0
2013/3/15,12:00:00,203,��쐼,3.8,3.2,46.9,0,0.84,225,�쐼,8.7,12
2013/3/15,13:00:00,248,���쐼,6.2,3.4,54.2,0,0.82,248,���쐼,10.6,56
2013/3/15,14:00:00,248,���쐼,3.8,3.9,51.3,0,0.73,225,�쐼,10.7,28
2013/3/15,15:00:00,248,���쐼,6.3,4,54.8,0,0.59,225,�쐼,10.7,31
2013/3/15,16:00:00,248,���쐼,5.6,3.8,58.5,0,0.4,248,���쐼,9.4,51
2013/3/15,17:00:00,225,�쐼,5.2,2.9,58.6,0,0.17,248,���쐼,9.9,8
2013/3/15,18:00:00,225,�쐼,4.9,2.8,59.2,0,0.01,248,���쐼,8.8,48
2013/3/15,19:00:00,248,���쐼,5,3.2,61.6,0,0,158,��쓌,11.9,36
2013/3/15,20:00:00,225,�쐼,3.4,3,61.9,0,0,225,�쐼,9.9,9
2013/3/15,21:00:00,225,�쐼,4.9,3.2,65.7,0,0,225,�쐼,8.8,56
2013/3/15,22:00:00,248,���쐼,4.8,3.3,66.4,0,0,225,�쐼,6.7,0
2013/3/15,23:00:00,248,���쐼,7.1,4.2,62.9,0,0,248,���쐼,12.6,54
2013/3/15,0:00:00,203,��쐼,2.6,4.2,63.2,0,0,248,���쐼,8.3,0
2013/3/16,1:00:00,203,��쐼,2.2,3.4,67.1,0,0,203,��쐼,5.8,48
2013/3/16,2:00:00,158,��쓌,2.1,1.4,76.6,0,0,158,��쓌,4.1,26
2013/3/16,3:00:00,158,��쓌,0.3,-1,85.5,0,0,270,��,2.3,14
2013/3/16,4:00:00,203,��쐼,2.7,3.9,72.8,0,0,180,��,5.6,53
2013/3/16,5:00:00,203,��쐼,2.5,3.8,74.8,0,0,203,��쐼,5.4,32
2013/3/16,6:00:00,203,��쐼,2,3.3,75.5,0,0.01,203,��쐼,5.5,18
2013/3/16,7:00:00,248,���쐼,4.6,4.2,73.9,0,0.1,248,���쐼,7.1,53
2013/3/16,8:00:00,225,�쐼,3.2,4.8,69.4,0,0.29,248,���쐼,7.9,1
2013/3/16,9:00:00,135,�쓌,2.8,5.6,65.4,0,0.47,135,�쓌,7.4,42
2013/3/16,10:00:00,225,�쐼,5,5.4,60.9,0,0.68,248,���쐼,11,24
2013/3/16,11:00:00,225,�쐼,5.7,5.4,61,0,0.77,248,���쐼,10.3,38
2013/3/16,12:00:00,225,�쐼,5,5,63.3,0,0.74,225,�쐼,11.2,13
2013/3/16,13:00:00,248,���쐼,5.1,4.8,63.5,0,0.68,225,�쐼,10.1,25
2013/3/16,14:00:00,315,�k��,3.5,2.7,78.7,0,0.36,293,���k��,7.9,2
2013/3/16,15:00:00,338,�k�k��,2.6,-0.2,93.5,0,0.15,315,�k��,7.2,12
2013/3/16,16:00:00,338,�k�k��,2.5,-0.3,92.1,0.5,0.1,23,�k�k��,5.3,37
2013/3/16,17:00:00,315,�k��,3.7,0.2,80.5,0,0.04,338,�k�k��,7.3,50
2013/3/16,18:00:00,293,���k��,5,-0.5,74.8,0,0.01,180,��,12.9,50
2013/3/16,19:00:00,315,�k��,4,-1.7,73.6,0,0,293,���k��,9.2,25
2013/3/16,20:00:00,315,�k��,5.1,-2.2,56.8,0,0,23,�k�k��,11.2,58
2013/3/16,21:00:00,315,�k��,6.6,-3.4,61.1,0,0.01,248,���쐼,13.9,1
2013/3/16,22:00:00,315,�k��,5,-4.1,60.2,0,0.01,360,�k,13.2,9
2013/3/16,23:00:00,293,���k��,1.6,-4.5,58.6,0,0,360,�k,8.7,15
2013/3/16,0:00:00,293,���k��,1.2,-6,63,0,0,338,�k�k��,4.8,11
2013/3/17,1:00:00,248,���쐼,1.4,-9.1,76.3,0,0,248,���쐼,3.3,30
2013/3/17,2:00:00,135,�쓌,1.2,-10.4,81.6,0,0,270,��,2.9,20
2013/3/17,3:00:00,270,��,1.4,-10.7,84.8,0,0.01,270,��,2.5,25